Location: ?
(35.4064°N, 139.3593°E)
Time: 17:00:16
(UTC+00:00)

ACS3 Solar Sail - Pass Details

Date: 25 June 2024
Orbit: 992 x 1023 km, 97.4° (Epoch: 14 July)

Event Time Altitude Azimuth Distance (km) Brightness Sun altitude
Exits shadow 10:42:38 - 105° (ESE) 3,021 6.8 -7.9°
Reaches altitude 10° 10:43:47 10° 97° (E) 2,762 6.6 -8.0°
Maximum altitude 10:47:10 15° 63° (ENE) 2,388 6.6 -8.6°
Drops below altitude 10° 10:50:33 10° 30° (NNE) 2,763 7.3 -9.1°
Sets 10:54:08 0° 9° (N) 3,715 8.3 -9.7°
